This is the latest recevied weather packets stored in our database for station/object SV8FES. If no packets are shown the sender has not sent any weather packets the latest 10 day(s).
| Time | Temp. | Humidity | Pressure | Rain* | Wind** | Luminosity | Snow |
|---|---|---|---|---|---|---|---|
| 1787829873 | 30.56° C | 61% | 1013.7 hPa | 0 mm | - | 789 W/m² | - |
| 1787829814 | 30.56° C | 61% | 1013.6 hPa | 0 mm | - | 791 W/m² | - |
| 1787829755 | 30.56° C | 61% | 1013.7 hPa | 0 mm | - | 793 W/m² | - |
| 1787829692 | 30° C | 61% | 1013.6 hPa | 0 mm | - | 793 W/m² | - |
| 1787829634 | 30° C | 62% | 1013.5 hPa | 0 mm | - | 796 W/m² | - |
| 1787829572 | 30° C | 61% | 1013.5 hPa | 0 mm | - | 793 W/m² | - |
| 1787829522 | 30° C | 61% | 1013.8 hPa | 0 mm | - | 798 W/m² | - |
| 1787829454 | 30° C | 61% | 1013.7 hPa | 0 mm | - | 793 W/m² | - |
| 1787829392 | 30° C | 61% | 1013.7 hPa | 0 mm | - | 798 W/m² | - |
| 1787829333 | 30.56° C | 61% | 1013.8 hPa | 0 mm | - | 800 W/m² | - |
| 1787829273 | 30° C | 61% | 1013.7 hPa | 0 mm | - | 802 W/m² | - |
| 1787829219 | 30.56° C | 60% | 1013.8 hPa | 0 mm | - | 802 W/m² | - |
| 1787829153 | 30.56° C | 60% | 1013.8 hPa | 0 mm | - | 802 W/m² | - |
| 1787829090 | 30.56° C | 59% | 1013.8 hPa | 0 mm | - | 803 W/m² | - |
| 1787829031 | 30.56° C | 59% | 1013.8 hPa | 0 mm | - | 803 W/m² | - |
| 1787828975 | 30.56° C | 58% | 1013.7 hPa | 0 mm | - | 805 W/m² | - |
| 1787828916 | 30.56° C | 57% | 1013.8 hPa | 0 mm | - | 805 W/m² | - |
| 1787828851 | 31.11° C | 57% | 1013.9 hPa | 0 mm | - | 812 W/m² | - |
| 1787828792 | 31.11° C | 57% | 1013.9 hPa | 0 mm | - | 807 W/m² | - |
| 1787828731 | 31.11° C | 56% | 1013.7 hPa | 0 mm | - | 809 W/m² | - |
| 1787828670 | 31.11° C | 57% | 1013.9 hPa | 0 mm | - | 809 W/m² | - |
| 1787828614 | 31.11° C | 57% | 1013.9 hPa | 0 mm | - | 807 W/m² | - |
| 1787828555 | 31.11° C | 56% | 1013.9 hPa | 0 mm | - | 809 W/m² | - |
| 1787828493 | 31.11° C | 55% | 1013.9 hPa | 0 mm | - | 809 W/m² | - |
| 1787828432 | 31.67° C | 54% | 1014 hPa | 0 mm | - | 807 W/m² | - |
* Rain latest hour (hover to see other rain measurements)
** Current wind speed in m/s (hover to see current wind gust speed)